User: anonymous
Location: Caltech
(34.1382°N, 118.1253°W)
Time: 00:23:08
(UTC-07:00)
Language:

PAYLOAD A - Orbit

View from above orbital plane
View from above orbital plane
View from above satellite
View from above satellite

Ground track
Ground track

The orbit data is extracted from the following two-line orbital elements,

1 27840U 03031A   14211.11494550  .00000012  00000-0  16847-4 0  6019
2 27840 098.2345 237.9785 0099273 053.6503 041.3475 14.38714933581884
Epoch (UTC): 30 July 2014 02:45:31
Eccentricity: 0.0099273
inclination: 98.2345°
perigee height: 692 km
apogee height: 833 km
right ascension of ascending node: 237.9785°
argument of perigee: 53.6503°
revolutions per day: 14.38714933
mean anomaly at epoch: 41.3475°
orbit number at epoch: 58188

The dashed part of the orbit path shows where the satellite is in the earth's shadow,  

DLR